Location: Asheville, NC
(35.6000°N, 82.5500°W)
Time: 18:45:18
(UTC-04:00)

CUTE-I - Pass Details

Date: 11 February 2018
Orbit: 810 x 826 km, 98.7° (Epoch: 21 May)

Event Time Altitude Azimuth Distance (km) Brightness Sun altitude
Rises 06:06:47 0° 25° (NNE) 3,354 ? -15.6°
Reaches altitude 10° 06:09:24 10° 35° (NE) 2,420 ? -15.1°
Maximum altitude 06:14:07 31° 97° (E) 1,398 ? -14.1°
Drops below altitude 10° 06:18:50 10° 159° (SSE) 2,414 ? -13.2°
Sets 06:21:25 0° 169° (S) 3,344 ? -12.7°
